Погода в Ивановом Боре

Россия / Вологодская область     59°46′00″N   38°15′11″E
темп.,
°C
ветер,
м/с
пор.,
м/с
влажн.,
%
обл.,
%
осадки,
мм/ч
давл.,
гПа
погр.,
м
20 сентября, пн
пн2000:00+1всв31084100 0.0 1030440
03:000всв31186100 0.0 1030426
06:000всв3118480 0.0 1030461
09:00+3в4970100 0.0 1030971
12:00+6в5858100 0.0 10301146
15:00+7в4856100 0.0 10291283
18:00+5всв4106695 0.0 1028656
21:00+3всв4127791 0.0 1028514
21 сентября, вт
вт2100:00+2всв41285100 0.0 1028408
03:00+1всв41186100 0.0 1027371
06:00+1всв41285100 0.0 1026420
09:00+4в4127455 0.0 1026559
12:00+7в5858100 0.0 1024945
15:00+8в4859100 0.0 10231113
18:00+7в3967100 0.0 1023557
21:00+5всв3117698 0.0 1023412
22 сентября, ср
ср2200:00+4всв3108197 0.0 1022334
03:00+4всв3984100 0.0 1022316
06:00+3всв41187100 0.0 1022394
09:00+5всв4107463 0.0 1021470
12:00+9в585971 0.0 1021838
15:00+10всв485880 0.0 10201009
18:00+8всв31067100 0.0 1020637
21:00+7в31071100 0.0 1019634
23 сентября, чт
чт2300:00+6всв3877100 0.1 1018402
03:00+5в3885100 0.1 1017427
06:00+5вюв3789100 0.0 1016390
09:00+7вюв3685100 0.0 1014321
12:00+8вюв3585100 0.1 1013425
15:00+7вюв2696100 0.3 1012388
18:00+7юв2797100 0.3 1010465
21:00+7ююв3897100 0.3 1009459
24 сентября, пт
пт2400:00+7ююв41193100 0.3 1008732
03:00+7юв41093100 0.4 1006711
06:00+6юв51093100 0.3 1005802
09:00+6юв51094100 0.9 10031113
12:00+8ююв51086100 0.4 10021078
15:00+8ююв5108467 0.9 10011064
18:00+7ююв5128655 0.1 1001865
21:00+7ююв51286100 0.1 1000758